This is the latest recevied weather packets stored in our database for station/object N6GPM. If no packets are shown the sender has not sent any weather packets the latest 10 day(s).
| Time | Temp. | Humidity | Pressure | Rain* | Wind** | Luminosity | Snow |
|---|---|---|---|---|---|---|---|
| 1777600588 | 18.89° C | 67% | 1014.6 hPa | 0 mm | - | 31 W/m² | - |
| 1777600285 | 18.89° C | 67% | 1014.6 hPa | 0 mm | - | 36 W/m² | - |
| 1777599981 | 18.89° C | 67% | 1014.5 hPa | 0 mm | - | 41 W/m² | - |
| 1777599677 | 19.44° C | 66% | 1014.6 hPa | 0 mm | - | 47 W/m² | - |
| 1777599373 | 19.44° C | 65% | 1014.4 hPa | 0 mm | - | 44 W/m² | - |
| 1777599071 | 20° C | 64% | 1014.1 hPa | 0 mm | - | 48 W/m² | - |
| 1777598769 | 20° C | 63% | 1014.3 hPa | 0 mm | - | 48 W/m² | - |
| 1777598463 | 20° C | 64% | 1014.3 hPa | 0 mm | - | 86 W/m² | - |
| 1777598162 | 20.56° C | 63% | 1014.1 hPa | 0 mm | - | 55 W/m² | - |
| 1777597857 | 20.56° C | 62% | 1014.4 hPa | 0 mm | - | 103 W/m² | - |
| 1777597551 | 20.56° C | 60% | 1014.3 hPa | 0 mm | - | 123 W/m² | - |
| 1777597247 | 20.56° C | 60% | 1014.4 hPa | 0 mm | - | 81 W/m² | - |
| 1777596942 | 20.56° C | 61% | 1014.1 hPa | 0 mm | - | 152 W/m² | - |
| 1777596639 | 20.56° C | 61% | 1014.1 hPa | 0 mm | - | 165 W/m² | - |
| 1777596336 | 21.11° C | 59% | 1014.1 hPa | 0 mm | - | 84 W/m² | - |
| 1777596034 | 21.11° C | 59% | 1014.1 hPa | 0 mm | - | 207 W/m² | - |
| 1777595733 | 21.11° C | 58% | 1014 hPa | 0 mm | - | 208 W/m² | - |
| 1777595429 | 21.11° C | 57% | 1014 hPa | 0 mm | - | 228 W/m² | - |
| 1777595126 | 21.67° C | 57% | 1014 hPa | 0 mm | - | 223 W/m² | - |
| 1777594822 | 21.67° C | 58% | 1014 hPa | 0 mm | - | 268 W/m² | - |
| 1777594518 | 21.67° C | 57% | 1013.9 hPa | 0 mm | - | 278 W/m² | - |
| 1777594215 | 21.67° C | 57% | 1013.6 hPa | 0 mm | - | 291 W/m² | - |
| 1777593910 | 21.67° C | 57% | 1013.7 hPa | 0 mm | - | 318 W/m² | - |
| 1777593607 | 21.67° C | 58% | 1013.9 hPa | 0 mm | - | 348 W/m² | - |
| 1777593303 | 21.67° C | 57% | 1013.7 hPa | 0 mm | - | 337 W/m² | - |
* Rain latest hour (hover to see other rain measurements)
** Current wind speed in m/s (hover to see current wind gust speed)